User: anonymous
Location: B
(0.0000°N, 0.0000°E)
Time: 22:57:28
(UTC+02:00)
Language:

Cosmos 1025 Rocket - Orbit

View from above orbital plane
View from above orbital plane
View from above satellite
View from above satellite

Ground track
Ground track

The orbit data is extracted from the following two-line orbital elements,

1 10974U 78067B   14238.10233810  .00000293  00000-0  30162-4 0  3809
2 10974 082.4806 060.6921 0018922 140.0061 359.4512 14.86630293955087
Epoch (UTC): 26 August 2014 02:27:22
Eccentricity: 0.0018922
inclination: 82.4806°
perigee height: 595 km
apogee height: 621 km
right ascension of ascending node: 60.6921°
argument of perigee: 140.0061°
revolutions per day: 14.86630293
mean anomaly at epoch: 359.4512°
orbit number at epoch: 95508

The dashed part of the orbit path shows where the satellite is in the earth's shadow,  

DLR